Lid_Strength_Index
24 23 20 20 22 23 25 24 27 25 25 24 23 23 21 19 16 16 16 15 15 15 15 16 16 16 16 15 15 15 16 17 17 17 17 18 18 18 18 19 18 18 18 18
25 23 20 20 21 21 23 24 24 23 24 22 22 22 23 22 20 19 18 17 17 17 17 18 17 16 16 16 16 16 17 18 18 18 18 19 19 20 20 20 19 18 19 18
26 23 22 24 22 22 22 23 24 29 24 22 24 25 26 25 22 22 21 20 19 20 18 18 18 17 17 18 17 18 18 18 18 19 19 20 20 20 21 22 21 20 19 19
27 26 26 18 18 19 21 22 23 24 24 23 21 23 24 24 25 25 23 22 22 21 19 18 18 18 18 18 19 19 19 19 19 20 20 20 21 21 21 21 21 21 21 20
27 29 19 19 20 22 23 22 22 24 24 24 20 19 24 24 23 23 23 22 21 20 20 19 19 19 19 20 20 21 21 21 21 21 22 22 22 22 21 22 22 22 21 21
30 29 26 22 20 18 19 22 22 23 24 25 22 26 27 25 25 25 24 23 23 21 20 20 21 20 21 21 21 22 22 22 22 22 22 23 22 22 22 21 20 20 20 20
30 29 22 23 20 19 23 22 25 25 24 25 28 29 28 25 25 24 24 24 24 24 25 23 22 22 23 24 24 22 22 22 22 22 22 22 21 21 21 21 21 21 21 20
31 29 25 21 19 21 23 26 27 27 26 26 28 28 27 26 26 25 26 25 24 25 26 25 23 23 24 25 24 23 23 23 22 21 20 20 22 22 22 22 22 22 22 22
23 23 23 24 24 24 25 25 25 22 21 21 23 24 25 25 25 25 26 25 24 25 25 25 24 23 24 23 23 23 24 25 24 23 21 21 22 21 22 22 23 23 23 23
21 21 23 24 22 22 22 20 18 19 20 20 23 23 24 24 24 25 24 25 24 25 26 26 25 25 25 24 24 25 26 25 25 25 24 23 21 21 22 22 23 23 23 24
20 19 21 20 19 19 20 20 19 20 20 21 22 24 24 24 25 25 25 25 25 26 27 27 26 27 27 25 24 24 25 25 25 25 26 26 24 22 22 21 20 23 27 26
19 17 17 17 18 18 19 20 20 20 21 21 21 23 23 25 25 25 26 26 26 27 27 28 28 29 29 29 28 26 26 27 27 27 28 27 28 28 22 20 19 19 19 20
16 16 17 17 18 18 19 19 19 20 21 23 23 24 24 26 26 27 28 28 29 30 30 31 31 32 33 33 31 30 30 29 30 29 30 30 31 31 32 28 23 22 21 20
18 18 20 20 20 20 20 22 23 25 25 24 25 27 27 28 29 30 30 32 32 34 35 37 35 36 38 37 35 34 34 33 33 34 34 34 34 35 37 37 36 32 27 23
19 22 19 19 20 21 22 24 25 25 26 28 30 29 29 31 31 32 36 37 36 38 39 38 37 38 40 39 34 35 33 34 37 38 37 37 37 36 38 39 38 37 37 28
23 24 23 20 22 23 24 25 25 25 27 29 30 30 30 31 33 36 39 39 34 35 40 40 39 39 43 40 38 38 38 32 37 40 40 39 39 39 37 38 38 36 34 32
23 26 28 28 23 24 24 23 22 24 26 28 28 31 32 34 37 39 40 42 39 40 41 40 37 42 42 41 38 41 41 41 38 42 42 43 43 42 41 43 40 39 38 36
22 17 19 20 21 22 24 24 26 26 26 27 30 31 33 33 31 34 37 42 40 39 40 40 41 41 41 42 41 41 42 42 43 43 43 42 42 43 43 44 42 41 36 35
24 20 21 21 20 21 22 25 26 27 29 29 31 31 31 33 33 35 38 40 39 37 34 41 31 38 40 40 40 42 42 42 42 43 44 41 42 43 43 43 42 40 37 35
28 27 23 24 23 22 24 25 27 27 28 29 30 32 32 34 34 35 37 35 33 33 36 37 39 38 39 40 35 42 43 43 42 42 43 42 42 41 41 40 40 39 38 36
22 24 23 23 24 26 23 25 25 28 29 29 29 29 29 31 33 34 37 34 31 35 37 36 38 38 40 39 39 42 43 43 42 41 43 42 43 41 39 41 39 36 36 36
24 23 24 25 25 25 26 25 25 27 29 29 28 30 31 32 33 34 34 30 34 33 34 35 34 33 34 32 35 36 41 42 42 42 42 42 42 40 38 38 36 34 34 34
24 26 26 25 25 26 29 26 26 27 28 28 28 29 28 28 30 31 31 29 34 33 32 31 31 30 29 32 34 37 38 38 39 39 40 41 40 40 40 37 35 35 34 33
28 26 27 29 29 28 28 30 27 27 27 27 27 27 28 30 33 32 34 32 30 28 30 30 29 25 26 29 31 31 32 31 31 32 33 34 38 39 39 36 35 33 33 32
29 29 30 29 28 27 27 30 31 31 30 30 30 29 28 29 27 28 32 32 28 29 29 27 26 24 27 29 29 29 29 30 30 32 32 33 34 38 37 35 34 33 33 32
30 28 28 28 27 27 29 29 28 30 30 31 32 31 31 32 31 29 30 30 28 29 28 28 27 27 28 28 27 27 28 28 28 29 30 31 35 36 34 33 33 31 31 31
35 32 33 34 35 29 29 29 28 30 29 29 30 32 31 31 30 29 29 29 29 28 27 27 27 27 27 27 27 27 27 27 28 28 29 30 34 35 33 32 32 31 29 29